Weather History for Monroe, MI

Change the Weather History Date:

Saturday, April 7, 2012

  Actual Average Record
Temperature  
Mean Temperature 45 °F -  
Max Temperature 60 °F 52 °F 81 °F (1954)
Min Temperature 30 °F 34 °F 11 °F (1982)
Degree Days  
Heating Degree Days 20    
Moisture  
Dew Point 31 °F    
Average Humidity 66    
Maximum Humidity 100    
Minimum Humidity 29    
Precipitation  
Precipitation 0.00 in - - ()
Sea Level Pressure  
Sea Level Pressure 30.28 in    
Wind  
Wind Speed 1 mph (South)    
Max Wind Speed 9 mph    
Max Gust Speed -    
Visibility 10 miles    
Events      
Averages and records for this station are not official NWS values.
T = Trace of Precipitation, MM = Missing Value Source: NWS Daily Summary

Daily Weather History Graph

Daily Weather History Graph

Search for Another Location

Airport:

Trip Planner

Search our weather history database for the weather conditions in past years. The results will help you decide how hot, cold, wet, or windy it might be!

Date:

Astronomy

Apr. 07, 2012 Rise Set
Actual Time 7:05 AM EDT 8:06 PM EDT
Civil Twilight 6:37 AM EDT 8:35 PM EDT
Nautical Twilight 6:03 AM EDT 9:09 PM EDT
Astronomical Twilight 5:27 AM EDT 9:44 PM EDT
Moon 9:41 PM EDT (4/7) 7:15 AM EDT (4/7)
Length of Visible Light 13h 57m
Length of Day
13h 00m
Full, 99% of the Moon is Illuminated
Apr 7
Full
Apr 13
Last Quarter
Apr 21
New
Apr 29
First Quarter
May 5
Full

Hourly Weather History & Observations

Time (EDT) Temp. Windchill Dew Point Humidity Pressure Visibility Wind Dir Wind Speed Gust Speed Precip Events Conditions
12:14 AM 39.2 °F - 30.2 °F 70% 30.25 in 10.0 mi Calm Calm - N/A   Clear
12:34 AM 37.4 °F - 30.2 °F 75% 30.26 in 10.0 mi Calm Calm - N/A   Clear
12:54 AM 37.4 °F - 30.2 °F 75% 30.26 in 10.0 mi Calm Calm - N/A   Clear
1:14 AM 37.4 °F - 30.2 °F 75% 30.26 in 10.0 mi Calm Calm - N/A   Clear
1:34 AM 35.6 °F - 30.2 °F 81% 30.26 in 10.0 mi Calm Calm - N/A   Clear
1:54 AM 33.8 °F - 33.8 °F 100% 30.26 in 10.0 mi Calm Calm - N/A   Clear
2:12 AM 35.6 °F - 32.0 °F 87% 30.26 in 10.0 mi Calm Calm - N/A   Clear
2:32 AM 35.6 °F - 30.2 °F 81% 30.25 in 10.0 mi Calm Calm - N/A   Clear
2:52 AM 33.8 °F - 32.0 °F 93% 30.25 in 10.0 mi Calm Calm - N/A   Clear
3:12 AM 33.8 °F - 30.2 °F 87% 30.25 in 10.0 mi Calm Calm - N/A   Clear
3:32 AM 33.8 °F - 32.0 °F 93% 30.25 in 10.0 mi Calm Calm - N/A   Clear
3:52 AM 33.8 °F - 32.0 °F 93% 30.25 in 10.0 mi Calm Calm - N/A   Clear
4:12 AM 32.0 °F - 32.0 °F 100% 30.25 in 10.0 mi Calm Calm - N/A   Clear
4:32 AM 32.0 °F - 30.2 °F 93% 30.26 in 10.0 mi Calm Calm - N/A   Clear
4:53 AM 32.0 °F - 32.0 °F 100% 30.26 in 10.0 mi Calm Calm - N/A   Clear
5:15 AM 32.0 °F - 30.2 °F 93% 30.27 in 10.0 mi Calm Calm - N/A   Clear
5:35 AM 32.0 °F - 30.2 °F 93% 30.27 in 10.0 mi Calm Calm - N/A   Clear
5:55 AM 30.2 °F - 30.2 °F 100% 30.28 in 10.0 mi Calm Calm - N/A   Clear
6:10 AM 30.2 °F - 30.2 °F 100% 30.28 in 10.0 mi Calm Calm - N/A   Clear
6:30 AM 30.2 °F - 30.2 °F 100% 30.28 in 10.0 mi Calm Calm - N/A   Clear
6:50 AM 30.2 °F - 30.2 °F 100% 30.29 in 10.0 mi Calm Calm - N/A   Clear
7:11 AM 30.2 °F - 30.2 °F 100% 30.30 in 10.0 mi Calm Calm - N/A   Clear
7:31 AM 32.0 °F - 32.0 °F 100% 30.31 in 10.0 mi Calm Calm - N/A   Clear
7:51 AM 33.8 °F - 33.8 °F 100% 30.31 in 10.0 mi Calm Calm - N/A   Clear
8:11 AM 35.6 °F - 35.6 °F 100% 30.31 in 10.0 mi Calm Calm - N/A   Clear
8:31 AM 37.4 °F - 35.6 °F 93% 30.32 in 10.0 mi Calm Calm - N/A   Clear
8:51 AM 39.2 °F - 37.4 °F 93% 30.31 in 10.0 mi Calm Calm - N/A   Clear
9:11 AM 44.6 °F - 35.6 °F 71% 30.32 in 10.0 mi Calm Calm - N/A   Clear
9:31 AM 46.4 °F - 35.6 °F 66% 30.32 in 10.0 mi Calm Calm - N/A   Clear
9:51 AM 48.2 °F - 30.2 °F 50% 30.33 in 10.0 mi Calm Calm - N/A   Clear
10:12 AM 50.0 °F - 26.6 °F 40% 30.33 in 10.0 mi SW 3.5 mph - N/A   Clear
10:32 AM 51.8 °F - 26.6 °F 38% 30.32 in 10.0 mi SSW 3.5 mph - N/A   Clear
10:52 AM 53.6 °F - 26.6 °F 35% 30.32 in 10.0 mi WNW 4.6 mph - N/A   Clear
11:12 AM 53.6 °F - 28.4 °F 38% 30.32 in 10.0 mi SSW 3.5 mph - N/A   Clear
11:32 AM 53.6 °F - 26.6 °F 35% 30.31 in 10.0 mi SW 4.6 mph - N/A   Clear
11:52 AM 55.4 °F - 26.6 °F 33% 30.31 in 10.0 mi South 3.5 mph - N/A   Clear
12:12 PM 57.2 °F - 28.4 °F 33% 30.30 in 10.0 mi SW 5.8 mph - N/A   Clear
12:32 PM 57.2 °F - 28.4 °F 33% 30.29 in 10.0 mi Calm Calm - N/A   Clear
12:53 PM 57.2 °F - 26.6 °F 31% 30.29 in 10.0 mi South 5.8 mph - N/A   Clear
1:13 PM 57.2 °F - 26.6 °F 31% 30.29 in 10.0 mi Calm Calm - N/A   Clear
1:33 PM 57.2 °F - 30.2 °F 36% 30.28 in 10.0 mi SE 3.5 mph - N/A   Clear
1:53 PM 59.0 °F - 33.8 °F 39% 30.28 in 10.0 mi SSW 6.9 mph - N/A   Clear
2:13 PM 59.0 °F - 32.0 °F 36% 30.28 in 10.0 mi South 6.9 mph - N/A   Clear
2:33 PM 59.0 °F - 33.8 °F 39% 30.27 in 10.0 mi SSE 6.9 mph - N/A   Clear
2:53 PM 60.8 °F - 30.2 °F 31% 30.26 in 10.0 mi SSE 9.2 mph - N/A   Clear
3:13 PM 60.8 °F - 32.0 °F 34% 30.25 in 10.0 mi SSE 9.2 mph - N/A   Clear
3:34 PM 60.8 °F - 30.2 °F 31% 30.24 in 10.0 mi SSE 9.2 mph - N/A   Clear
3:54 PM 60.8 °F - 28.4 °F 29% 30.23 in 10.0 mi SE 8.1 mph - N/A   Clear
4:14 PM 60.8 °F - 32.0 °F 34% 30.22 in 10.0 mi SSE 9.2 mph - N/A   Clear
4:34 PM 60.8 °F - 30.2 °F 31% 30.21 in 10.0 mi SSE 9.2 mph - N/A   Clear
4:54 PM 60.8 °F - 30.2 °F 31% 30.20 in 10.0 mi SSE 6.9 mph - N/A   Clear
5:14 PM 60.8 °F - 30.2 °F 31% 30.20 in 10.0 mi South 9.2 mph - N/A   Clear
5:34 PM 60.8 °F - 32.0 °F 34% 30.19 in 10.0 mi SE 5.8 mph - N/A   Clear
5:54 PM 59.0 °F - 33.8 °F 39% 30.19 in 10.0 mi SE 9.2 mph - N/A   Clear
6:15 PM 57.2 °F - 32.0 °F 38% 30.19 in 10.0 mi SSE 6.9 mph - N/A   Clear
6:35 PM 55.4 °F - 33.8 °F 44% 30.19 in 10.0 mi SSE 11.5 mph - N/A   Clear
6:55 PM 55.4 °F - 33.8 °F 44% 30.19 in 10.0 mi SSE 9.2 mph - N/A   Clear
7:15 PM 53.6 °F - 35.6 °F 51% 30.19 in 10.0 mi SSE 5.8 mph - N/A   Clear
7:35 PM 53.6 °F - 37.4 °F 54% 30.19 in 10.0 mi Calm Calm - N/A   Clear
7:50 PM 51.8 °F - 35.6 °F 54% 30.18 in 10.0 mi South 4.6 mph - N/A   Clear
8:10 PM 51.8 °F - 35.6 °F 54% 30.17 in 10.0 mi South 5.8 mph - N/A   Clear
8:30 PM 51.8 °F - 33.8 °F 50% 30.16 in 10.0 mi SSE 4.6 mph - N/A   Clear
8:51 PM 51.8 °F - 33.8 °F 50% 30.16 in 10.0 mi SSE 5.8 mph - N/A   Clear
9:11 PM 51.8 °F - 33.8 °F 50% 30.16 in 10.0 mi SSE 6.9 mph - N/A   Clear
9:31 PM 51.8 °F - 33.8 °F 50% 30.16 in 10.0 mi SSE 6.9 mph - N/A   Clear
9:51 PM 51.8 °F - 35.6 °F 54% 30.16 in 10.0 mi South 6.9 mph - N/A   Clear
10:11 PM 51.8 °F - 33.8 °F 50% 30.16 in 10.0 mi SSE 5.8 mph - N/A   Clear
10:31 PM 50.0 °F - 33.8 °F 54% 30.15 in 10.0 mi SSE 5.8 mph - N/A   Clear
10:51 PM 48.2 °F - 33.8 °F 58% 30.15 in 10.0 mi South 6.9 mph - N/A   Clear
11:11 PM 48.2 °F - 33.8 °F 58% 30.14 in 10.0 mi South 5.8 mph - N/A   Clear
11:32 PM 46.4 °F 43.5 °F 35.6 °F 66% 30.14 in 10.0 mi South 5.8 mph - N/A   Clear
11:52 PM 48.2 °F - 33.8 °F 58% 30.13 in 10.0 mi SSE 4.6 mph - N/A   Clear